GEFSNGP_850_meantemp_078.txt.gz
Temperature
20 20 21 21 21 20 19 18 17 18 17 18 17 17 18 19 19 19 19 18 18 17 16 15 14 14 13 12 12 11 11 10 10 9 9 9 9 9 8 8 8 8 8 8
21 22 21 21 22 21 21 19 18 19 18 17 17 18 18 18 19 19 19 18 18 17 16 15 14 13 13 12 11 11 10 10 10 9 9 9 9 8 8 8 8 8 8 8
19 20 21 21 21 22 21 20 19 19 19 18 17 17 18 19 19 19 19 18 17 17 16 15 14 13 12 12 11 10 10 10 9 9 9 9 8 8 8 8 8 8 8 8
18 20 21 20 20 21 21 20 18 18 18 16 18 20 20 20 20 19 19 18 17 16 15 14 13 13 12 11 11 10 10 10 9 9 9 9 8 8 8 8 8 8 8 8
16 19 20 20 21 20 20 20 19 18 18 17 17 18 19 20 20 19 19 18 17 16 15 14 13 12 12 11 10 10 10 10 9 9 9 9 9 8 8 8 8 8 8 8
16 19 20 20 21 21 20 20 19 18 16 16 16 15 17 21 20 19 18 18 17 16 15 14 13 12 12 11 10 10 10 9 9 9 9 9 8 8 8 8 8 8 8 8
16 18 18 19 20 21 20 19 21 20 19 18 17 19 21 21 20 19 18 17 16 15 15 14 13 12 12 11 11 10 10 10 9 9 9 8 8 8 8 8 8 8 8 8
15 18 19 20 19 19 20 22 23 22 22 21 22 22 21 20 20 19 18 17 16 15 15 14 13 12 12 11 11 10 10 10 9 9 9 8 8 8 8 8 8 8 8 8
16 18 19 20 21 23 23 23 23 23 23 22 22 21 21 20 19 19 18 17 16 15 14 14 13 12 12 11 11 10 10 10 9 9 9 8 8 8 8 8 8 8 8 8
16 17 19 21 22 23 23 23 24 24 23 22 21 21 21 20 19 18 18 17 16 15 14 14 13 12 12 11 11 10 10 10 9 9 9 9 9 8 8 8 8 8 8 8
17 17 19 22 23 23 23 23 23 23 23 22 22 21 21 20 19 19 18 17 16 15 15 14 13 13 12 11 11 10 10 10 9 9 9 9 9 9 9 8 8 8 8 8
17 19 17 20 22 22 22 23 23 23 22 22 21 21 20 20 19 18 18 17 16 15 14 14 13 13 12 11 11 10 10 10 10 9 9 9 9 9 9 9 8 8 8 8
18 19 19 19 20 21 21 22 22 22 22 22 21 21 20 19 19 18 17 16 16 15 14 14 13 13 12 11 11 10 10 10 9 9 9 9 9 9 9 9 9 9 8 8
17 18 17 18 18 20 20 21 21 21 20 20 20 20 19 19 18 18 17 16 15 15 14 14 13 13 12 11 11 11 10 10 9 9 9 9 9 9 9 9 9 9 9 8
16 16 16 16 17 18 19 19 19 19 19 19 18 18 18 18 17 17 17 16 15 15 14 13 13 13 12 11 11 11 10 10 10 9 9 9 9 9 9 9 9 9 9 9
15 16 16 16 16 16 17 17 17 17 17 17 17 17 17 17 17 16 16 15 15 15 14 14 13 12 12 11 11 11 10 10 10 9 9 9 9 9 9 9 9 9 9 8
14 14 14 14 14 15 15 15 16 16 16 17 16 16 16 16 16 16 16 15 15 14 14 13 13 12 12 11 11 11 10 10 10 9 9 9 10 10 9 9 9 9 9 9
13 13 13 13 13 14 14 14 15 15 15 15 15 16 15 15 15 15 15 14 14 14 14 13 13 12 12 11 11 10 10 10 10 9 9 9 9 10 10 9 9 9 9 9
13 13 13 13 13 13 13 13 14 14 14 14 14 14 14 14 14 14 14 14 14 14 14 13 13 12 11 11 11 10 10 9 9 9 9 9 9 10 10 9 9 9 9 8
12 12 12 13 13 13 12 12 13 13 13 13 13 13 13 13 13 13 13 13 13 13 13 13 12 12 11 11 10 10 9 9 9 9 9 9 9 9 10 9 9 9 9 8
12 12 12 12 12 12 12 12 12 12 12 12 12 12 12 12 12 12 12 13 13 13 13 12 12 11 11 10 10 9 9 9 9 9 9 9 9 9 9 9 9 9 9 9
11 11 11 11 11 11 11 11 11 11 11 11 11 11 11 11 12 12 12 12 12 12 12 12 11 11 10 10 10 9 9 9 9 9 9 9 9 9 9 9 9 9 9 9
11 11 11 11 10 10 10 10 10 10 10 10 10 10 10 10 11 11 11 11 12 12 11 11 11 10 10 9 9 9 8 8 8 8 8 9 9 9 9 9 9 9 9 9
10 10 10 10 10 10 10 10 10 10 10 10 10 10 10 10 10 10 10 11 11 11 11 10 10 10 9 9 8 8 8 8 8 8 8 8 8 9 9 9 9 9 9 9
10 10 10 10 10 10 9 9 9 9 9 9 9 9 9 9 9 9 10 10 10 10 10 10 9 9 9 8 8 8 8 7 7 8 8 8 8 8 8 9 9 9 9 9
9 9 9 9 9 9 9 9 9 9 9 9 9 9 9 9 9 9 9 9 9 9 9 9 9 8 8 8 7 7 7 7 7 7 7 8 8 8 8 8 8 9 9 9
9 9 9 9 9 9 9 9 9 9 8 8 8 8 8 8 8 8 8 8 8 8 8 8 8 7 7 7 7 7 6 6 7 7 7 7 7 8 8 8 8 8 8 8

GEFSNGP_850_meantemp_084.txt.gz
Temperature
28 28 28 28 28 28 27 27 27 27 27 28 28 27 26 25 23 22 21 21 20 19 19 18 17 16 15 15 14 13 13 12 12 11 11 10 10 10 10 9 9 9 9 9
27 28 28 27 28 28 27 27 27 27 27 28 26 26 25 24 23 22 22 21 20 19 18 18 17 16 15 15 14 13 12 12 12 11 11 10 10 10 10 9 9 9 9 9
27 28 27 27 28 28 28 28 27 27 28 27 26 25 24 23 23 23 22 21 20 19 19 18 17 16 15 14 14 13 12 12 11 11 11 10 10 10 9 9 9 9 9 9
27 26 25 28 28 28 28 28 28 27 27 27 26 25 24 23 23 22 22 21 20 19 19 18 17 16 15 14 13 13 12 12 11 11 10 10 10 10 9 9 9 9 9 9
26 26 26 28 28 28 27 27 28 28 27 26 25 24 24 23 22 22 21 21 20 19 18 17 17 16 15 14 13 13 12 12 11 11 10 10 10 10 9 9 9 9 9 9
26 25 25 27 28 27 27 26 28 27 27 26 24 26 26 24 22 22 21 20 19 19 18 17 16 16 15 14 13 13 12 12 11 11 10 10 10 9 9 9 9 9 9 9
25 25 27 27 26 26 26 26 26 26 26 25 25 25 24 23 22 21 20 20 19 18 18 17 16 15 15 14 13 13 12 11 11 11 10 10 10 9 9 9 9 9 9 9
25 25 25 25 26 26 25 24 25 25 25 24 24 24 23 22 21 21 20 19 19 18 18 17 16 15 15 14 13 12 12 11 11 11 10 10 10 10 9 9 9 9 9 9
25 25 24 24 24 23 22 23 23 24 24 24 24 23 23 22 21 20 20 19 18 18 17 16 16 15 15 14 13 12 12 11 11 11 10 10 10 10 9 10 10 10 9 9
24 25 24 23 22 21 21 22 22 22 23 23 23 23 22 21 20 20 19 19 18 18 17 16 15 15 15 14 13 12 12 11 11 10 10 10 10 10 10 10 10 10 9 9
24 24 23 22 20 20 20 20 21 21 21 22 22 21 21 20 20 19 19 18 18 17 16 16 15 15 14 13 13 12 12 11 11 11 11 10 10 10 10 10 10 9 9 9
23 21 22 20 19 19 19 19 19 20 20 20 20 20 19 19 18 18 17 17 17 16 16 16 15 14 14 13 13 12 12 11 11 11 11 11 11 11 11 10 10 10 9 9
19 18 18 18 18 18 18 18 18 18 18 18 18 18 18 18 17 17 17 16 16 16 16 15 15 14 14 13 13 12 12 11 11 11 11 11 11 10 11 10 10 10 10 9
16 17 17 17 17 17 17 17 17 17 17 17 17 17 17 16 16 16 16 16 15 15 15 15 14 14 14 13 12 12 12 11 11 11 11 11 10 10 10 10 10 10 10 9
16 16 16 16 16 16 16 16 17 16 16 16 16 15 15 15 15 15 15 15 15 15 14 14 14 13 13 13 12 12 11 11 11 11 10 10 10 10 10 10 10 10 10 10
15 15 15 15 15 15 15 15 15 15 15 15 15 14 14 14 14 14 14 14 14 14 14 13 13 13 12 12 12 12 11 11 11 10 10 11 11 11 10 10 10 10 10 10
15 15 14 14 14 14 14 14 14 14 14 14 14 13 13 13 13 13 13 13 13 13 13 13 12 12 12 12 11 11 11 11 11 10 10 11 11 10 10 10 10 10 10 9
13 13 13 13 14 14 13 13 13 13 13 13 13 13 13 12 12 12 12 12 12 12 12 12 11 11 11 11 11 11 11 11 11 11 10 10 10 10 10 10 10 10 9 9
13 13 13 12 12 12 13 12 12 12 12 12 12 12 12 11 11 11 11 11 11 12 11 11 11 11 11 11 11 10 10 11 11 10 10 10 10 10 10 10 10 10 9 9
12 12 12 12 12 12 12 12 12 12 11 11 11 11 11 11 10 10 10 11 11 11 10 10 10 10 10 10 10 10 10 10 10 10 10 10 10 10 10 10 10 9 9 9
12 12 12 12 12 12 11 11 11 11 11 11 11 10 10 10 10 10 10 10 10 10 9 10 10 10 10 9 9 9 10 10 10 10 10 10 10 10 10 10 9 9 9 9
11 11 11 11 11 11 11 11 11 11 10 10 10 10 10 10 10 10 10 10 9 9 9 9 9 9 9 9 9 9 9 9 9 9 9 9 9 9 9 9 9 9 9 9
11 11 11 11 10 10 10 10 10 10 10 10 10 10 9 9 9 9 10 9 9 8 8 8 8 8 9 8 8 8 9 8 9 9 9 9 9 9 9 9 9 9 9 8
10 10 10 10 10 10 10 10 10 10 10 9 10 10 9 9 9 9 9 8 8 8 8 8 8 8 8 8 7 8 8 8 8 8 8 8 8 8 8 8 8 8 8 8
10 10 10 10 10 10 10 10 10 10 10 10 10 10 10 9 9 9 8 8 8 7 7 7 7 7 7 7 7 7 7 7 7 7 7 8 8 8 8 8 8 8 8 8
10 9 10 9 9 9 9 10 10 10 9 9 9 9 9 9 8 8 8 8 8 7 7 7 7 7 6 6 6 6 6 6 6 6 7 7 7 7 8 8 8 8 8 8
9 9 9 9 10 10 10 9 9 9 9 9 9 9 8 8 8 8 7 7 7 7 6 6 6 6 6 6 6 6 6 6 6 6 6 6 6 7 7 7 7 7 7 8

GEFSNGP_850_meantemp_090.txt.gz
Temperature
28 27 26 26 28 29 29 29 28 28 28 27 28 29 29 28 28 27 26 25 24 23 22 21 20 19 19 18 17 17 16 15 15 14 14 13 13 13 12 12 12 11 11 11
28 29 28 29 30 30 30 30 30 29 29 29 29 29 28 28 27 27 26 25 24 23 22 21 20 19 19 18 17 17 16 15 15 14 14 13 13 12 12 12 12 12 11 11
27 28 28 28 29 29 30 30 30 29 29 29 29 29 28 28 27 26 26 25 24 23 22 21 20 19 19 18 17 17 16 15 15 14 14 13 13 13 12 12 12 12 12 11
27 26 25 28 30 30 30 30 30 30 29 29 29 28 27 27 26 26 25 25 24 23 22 21 20 19 18 18 17 17 16 16 15 14 14 13 13 13 12 12 12 12 11 11
26 26 26 28 29 29 29 29 30 29 29 29 29 28 27 26 26 25 25 24 23 23 22 21 20 19 18 18 17 17 16 16 15 14 14 14 13 13 12 12 12 12 11 11
26 25 25 26 26 27 28 26 28 28 28 28 28 27 26 26 25 25 24 23 23 22 22 21 20 19 18 18 17 17 16 16 15 15 14 14 13 13 13 12 12 12 11 11
25 26 26 25 26 26 25 24 27 27 27 26 27 26 26 25 25 24 23 23 22 22 21 20 19 19 18 17 17 17 16 16 15 15 14 14 13 13 13 12 12 12 12 12
24 24 23 23 24 22 22 23 25 26 26 26 26 26 25 24 24 23 23 22 22 21 20 20 19 18 18 17 17 16 16 15 15 15 14 14 13 13 13 12 12 12 12 12
24 22 21 21 21 22 22 23 24 25 25 25 25 25 24 24 23 23 22 22 21 21 20 19 18 18 17 17 16 16 15 15 15 14 14 14 13 13 12 12 12 12 12 12
24 22 21 21 21 21 22 23 24 24 24 24 24 24 24 23 22 22 21 21 21 20 19 19 18 17 17 17 16 15 15 15 14 14 14 13 13 13 13 13 13 13 12 12
23 22 22 21 22 22 23 23 23 23 23 23 23 22 22 21 21 20 20 20 20 19 19 18 18 17 16 16 16 15 15 14 14 13 13 13 13 13 13 13 13 13 12 12
23 23 23 21 21 22 22 22 22 22 21 21 21 21 20 20 20 19 19 19 19 18 18 18 17 17 16 16 15 15 14 14 13 13 13 14 13 13 13 13 13 13 13 12
23 23 22 22 22 22 22 21 21 20 20 20 19 19 19 19 18 18 18 18 17 17 17 17 16 16 16 15 15 14 14 13 13 13 13 13 13 13 13 13 13 13 13 12
21 21 21 21 21 20 20 20 20 19 19 18 18 18 18 17 17 17 17 16 16 16 16 16 15 15 15 15 14 14 13 13 13 13 13 13 13 13 13 13 13 13 13 12
20 20 20 20 20 19 19 19 19 18 18 17 17 17 16 16 16 16 15 15 15 15 15 14 14 14 14 14 13 13 13 13 13 13 13 13 13 13 13 13 13 13 13 12
20 19 19 19 18 18 18 18 18 17 17 17 16 16 15 15 15 15 14 14 14 14 13 13 13 13 13 12 12 12 12 13 13 12 12 12 13 13 13 13 13 12 12 12
19 18 18 18 17 17 17 17 17 16 16 16 15 15 15 14 14 13 13 13 13 13 13 12 12 12 12 12 12 11 12 12 12 12 12 12 12 12 12 12 12 12 12 12
17 17 17 16 16 16 16 16 16 15 15 15 15 15 14 14 13 13 12 12 12 12 12 12 11 11 11 11 11 11 11 11 12 12 12 12 12 12 12 12 12 12 12 12
16 16 16 15 15 15 15 15 15 15 14 14 14 14 13 13 12 12 12 12 12 12 11 11 11 11 11 10 10 10 11 11 11 11 12 12 12 12 11 11 11 11 11 11
15 15 15 15 15 15 15 14 14 14 14 14 13 13 13 12 12 12 11 11 12 11 11 11 11 10 10 10 10 10 10 10 11 11 11 11 11 11 11 11 11 11 11 11
15 15 15 15 15 14 14 14 14 13 13 13 13 13 12 12 12 11 11 11 11 11 11 10 10 10 10 9 9 9 9 10 10 10 10 10 10 10 10 10 10 10 10 10
15 14 14 14 14 14 13 13 13 13 13 13 12 12 12 12 12 11 11 11 11 11 10 10 10 10 9 9 9 9 9 9 9 9 10 10 10 10 10 10 10 10 10 10
14 13 13 13 13 13 13 12 13 13 12 12 12 12 12 11 11 11 11 11 11 10 10 10 9 9 9 8 8 8 8 8 8 9 9 9 9 9 9 9 9 9 9 9
13 13 12 12 12 12 12 12 12 12 12 12 12 12 12 11 11 11 11 11 10 10 10 9 9 9 9 8 8 8 8 8 8 8 8 8 8 8 8 9 9 9 9 9
12 12 12 12 12 12 12 12 12 12 12 12 12 12 12 11 11 11 11 10 10 10 9 9 9 8 8 8 8 7 7 7 7 7 7 7 7 8 8 8 8 8 8 9
12 12 12 12 12 12 12 12 12 12 12 12 12 11 11 11 11 10 10 10 10 9 9 8 8 8 8 7 7 7 6 6 6 6 6 6 7 7 7 7 8 8 8 8
12 12 12 12 12 12 12 12 12 12 11 11 11 11 10 10 10 10 10 9 9 9 8 8 7 7 7 6 6 6 5 5 5 5 6 6 6 6 6 7 7 7 7 7

GEFSNGP_850_meantemp_096.txt.gz
Temperature
22 22 22 23 23 23 22 20 20 21 21 21 21 21 22 23 24 23 22 22 22 22 22 22 21 21 20 20 19 19 18 18 17 17 16 16 15 15 14 14 14 13 13 13
22 23 23 23 23 23 23 23 22 22 21 21 22 23 23 23 23 22 22 23 23 22 22 22 21 21 20 20 19 19 18 18 17 17 16 16 15 15 14 14 14 13 13 13
20 21 22 21 22 22 22 22 22 21 21 21 20 20 22 22 22 22 23 23 23 22 22 22 22 21 21 20 19 19 18 18 17 17 16 16 15 15 15 14 14 13 13 13
18 20 21 21 22 22 22 21 20 20 20 20 20 22 23 24 23 23 23 23 23 23 22 22 22 21 21 20 20 19 18 18 17 17 17 16 15 15 15 14 14 13 13 13
17 19 20 21 21 21 20 19 18 19 19 20 21 21 21 23 23 24 24 24 23 23 23 22 22 21 20 20 19 19 18 18 17 17 17 16 15 15 15 14 14 13 13 13
17 19 19 20 21 21 21 19 18 18 18 19 20 18 19 22 23 23 23 23 23 23 22 22 22 21 20 20 19 19 19 18 17 17 16 16 15 15 14 14 14 14 13 13
17 18 18 19 19 20 20 18 17 17 18 18 18 18 21 22 23 23 23 23 23 22 22 22 21 21 20 20 19 19 18 18 17 16 16 16 15 15 14 14 14 13 13 13
16 17 18 18 18 18 17 17 17 18 19 19 19 20 21 21 22 22 22 22 22 22 21 21 21 20 20 20 19 18 18 17 17 16 16 15 15 14 14 14 13 13 13 13
16 16 16 16 17 17 18 18 18 19 19 19 19 19 20 20 20 21 21 21 21 21 21 20 20 20 19 19 18 18 17 17 16 16 15 15 14 14 14 14 13 13 13 13
15 15 16 17 17 18 18 18 19 19 19 19 19 19 19 19 19 19 20 20 20 20 20 19 19 18 18 18 17 17 16 16 16 15 15 14 14 14 13 13 13 13 13 13
15 15 15 16 18 18 18 18 18 18 18 18 18 18 18 18 18 18 18 18 18 18 18 18 18 17 17 17 16 16 15 15 15 14 14 14 14 13 13 13 13 13 13 12
15 15 15 16 18 18 18 18 18 18 17 17 17 17 17 17 17 17 17 17 17 17 17 17 16 16 16 15 15 15 15 14 14 14 13 13 13 13 13 13 13 13 12 12
18 18 18 18 18 18 17 17 17 17 17 16 16 16 16 16 16 16 16 16 16 16 15 15 15 15 14 14 14 14 14 13 13 13 13 12 12 12 12 12 12 12 12 12
19 18 17 17 17 17 17 17 17 16 16 16 16 16 16 16 15 15 15 15 15 15 14 14 14 14 13 13 13 13 13 12 12 12 12 12 12 12 12 12 12 12 12 12
18 18 17 17 17 17 17 16 16 16 16 15 15 15 15 15 15 14 14 14 14 14 13 13 13 13 12 12 12 12 12 12 11 11 11 11 11 11 11 11 11 11 11 11
17 17 17 16 16 16 16 16 16 15 15 15 15 14 14 14 14 13 13 13 13 13 12 12 12 12 12 12 11 11 11 11 11 11 11 11 11 11 11 11 11 11 11 11
16 16 16 16 16 16 15 15 15 15 15 14 14 14 14 13 13 13 12 12 12 12 12 11 11 11 11 11 11 11 10 10 10 10 10 10 10 10 10 10 10 10 10 10
15 15 15 15 15 15 15 15 14 14 14 14 14 13 13 13 12 12 12 12 12 11 11 11 11 11 11 11 10 10 10 10 10 9 9 9 9 9 9 9 10 10 10 10
15 15 15 15 15 14 14 14 14 14 13 13 13 13 13 12 12 12 12 11 11 11 11 11 11 10 10 10 10 10 10 9 9 9 9 9 9 9 9 9 9 9 9 9
15 14 14 14 14 14 14 13 13 13 13 13 13 12 12 12 12 12 11 11 11 11 11 11 10 10 10 10 10 9 9 9 9 8 8 8 8 8 8 8 9 8 9 9
14 14 13 13 13 13 13 13 13 12 12 12 12 12 12 12 12 11 11 11 11 11 11 10 10 10 10 10 9 9 9 9 8 8 8 8 8 8 8 8 8 8 8 8
13 13 13 13 13 12 12 12 12 12 12 12 12 12 12 12 11 11 11 11 11 11 10 10 10 10 10 9 9 9 8 8 8 8 7 7 7 7 7 7 7 7 8 8
12 12 12 12 12 12 12 12 12 12 12 12 12 12 12 11 11 11 11 11 10 10 10 10 10 9 9 9 9 8 8 8 7 7 7 7 6 6 6 7 7 7 7 7
12 12 12 12 12 12 12 12 12 12 11 11 11 11 11 11 11 11 11 10 10 10 10 9 9 9 9 8 8 8 7 7 7 6 6 6 6 6 6 6 6 7 7 7
12 12 12 12 11 11 11 11 11 11 11 11 11 11 11 10 10 10 10 10 10 9 9 9 9 8 8 8 7 7 6 6 6 6 6 5 5 5 6 6 6 6 7 7
11 11 11 11 11 11 11 10 10 10 10 10 10 10 10 10 10 10 9 9 9 9 8 8 8 7 7 7 6 6 6 5 5 5 5 5 5 5 5 5 5 6 6 6
10 10 10 10 10 10 10 10 10 9 9 9 9 9 9 9 9 9 9 9 8 8 8 7 7 7 6 6 5 5 5 5 5 4 4 4 4 5 5 5 5 5 6 6

GEFSNGP_850_meantemp_102.txt.gz
Temperature
20 20 20 21 21 19 18 18 18 18 18 19 18 18 19 20 21 21 22 22 22 22 22 22 22 21 21 20 20 19 18 18 18 17 17 16 16 16 15 15 15 14 14 14
20 21 20 20 21 20 19 19 18 19 18 18 18 19 19 19 20 20 21 22 22 22 22 22 22 21 21 20 20 19 18 18 18 17 17 17 16 16 16 15 15 14 14 14
19 19 20 20 20 20 19 19 18 18 18 17 17 16 17 18 19 20 21 22 22 22 22 22 22 22 21 21 20 19 19 18 18 17 17 17 16 16 16 15 15 15 14 14
17 19 20 19 19 19 19 18 17 17 17 17 17 18 18 19 20 21 22 22 22 22 22 22 22 22 21 20 20 19 19 18 18 18 17 17 17 16 16 15 15 15 14 14
16 17 18 19 19 18 18 18 17 16 16 17 18 18 18 18 19 21 21 22 22 22 22 22 22 21 21 20 20 19 19 19 18 18 17 17 17 16 16 15 15 15 14 14
15 18 18 19 19 18 18 18 17 16 16 16 17 16 16 18 19 20 20 21 21 21 21 21 21 20 20 19 19 19 19 18 18 17 17 17 16 16 15 15 15 14 14 14
15 16 17 18 17 18 18 18 17 16 16 16 15 16 17 18 19 19 20 20 20 20 20 20 20 19 19 19 19 19 18 18 17 17 17 16 16 15 15 15 14 14 14 13
14 16 17 17 17 17 17 16 16 16 16 16 16 16 17 18 18 19 19 19 19 19 19 19 19 19 19 19 18 18 17 17 17 16 16 15 15 15 14 14 14 13 13 13
14 15 16 15 16 16 17 16 16 16 16 16 16 16 16 17 18 18 18 18 18 18 18 18 18 18 18 18 17 17 16 16 16 16 15 15 14 14 14 14 13 13 13 13
14 14 15 16 16 16 17 16 17 17 17 17 16 16 16 17 17 17 17 17 17 17 17 17 17 17 16 16 16 16 15 15 15 15 14 14 14 13 13 13 13 13 12 12
14 14 15 16 16 16 16 16 16 16 16 16 16 16 16 16 16 16 16 16 16 16 16 16 15 15 15 15 15 15 14 14 14 14 13 13 13 13 13 12 12 12 12 12
14 15 14 15 16 16 16 16 16 16 16 16 16 16 16 15 15 15 15 15 15 15 15 14 14 14 14 14 14 14 14 13 13 13 12 12 12 12 12 12 12 11 11 11
16 16 16 15 16 16 16 16 16 16 16 15 15 15 15 15 15 15 14 14 14 14 14 13 13 13 13 13 13 13 13 12 12 12 12 11 11 11 11 11 11 11 11 11
15 15 15 15 15 15 16 15 15 15 15 15 15 14 14 14 14 14 13 13 13 13 13 13 12 12 12 12 12 12 12 11 11 11 11 11 10 10 10 10 10 11 11 11
15 15 15 15 15 15 15 15 15 14 14 14 14 14 14 14 13 13 13 12 12 12 12 12 12 11 11 11 11 11 11 11 10 10 10 10 10 10 9 9 9 9 10 10
14 14 15 14 14 14 14 14 14 14 14 14 13 13 13 13 13 12 12 12 12 12 11 11 11 11 11 11 11 10 10 10 10 10 10 9 9 9 9 9 9 9 9 9
14 13 14 14 14 13 13 13 14 13 13 13 13 13 13 13 12 12 12 11 11 11 11 11 11 11 10 10 10 10 10 10 9 9 9 9 9 9 8 8 8 8 8 8
14 14 14 14 13 13 13 13 13 13 13 13 13 12 12 12 12 12 11 11 11 11 11 11 11 10 10 10 10 10 10 9 9 9 9 9 8 8 8 8 8 8 8 8
13 13 13 13 13 13 13 13 13 12 12 12 12 12 12 12 11 11 11 11 11 11 11 11 10 10 10 10 10 10 9 9 9 9 8 8 8 8 7 7 7 7 7 7
12 12 12 12 12 12 12 12 12 12 12 12 12 12 11 11 11 11 11 11 11 11 11 11 10 10 10 10 10 9 9 9 9 8 8 8 7 7 7 7 6 6 6 7
12 12 12 12 12 12 12 12 12 12 11 11 11 11 11 11 11 11 11 11 11 11 10 10 10 10 10 9 9 9 9 8 8 8 7 7 7 6 6 6 6 6 6 6
11 11 11 11 11 11 11 11 11 11 11 11 11 11 11 11 11 11 11 10 10 10 10 10 10 9 9 9 9 8 8 8 7 7 7 6 6 6 5 5 5 5 5 6
11 11 11 11 11 11 11 11 11 11 11 11 11 10 10 10 10 10 10 10 10 10 9 9 9 9 9 8 8 8 7 7 7 6 6 5 5 5 5 5 5 5 5 5
10 10 10 10 10 10 10 10 10 10 10 10 10 10 10 10 10 9 9 9 9 9 9 9 8 8 8 7 7 7 7 6 6 5 5 5 5 5 5 5 5 4 5 5
9 9 9 10 10 10 9 9 9 9 9 9 9 9 9 9 9 9 9 8 8 8 8 8 8 7 7 7 6 6 6 5 5 5 4 4 4 4 4 4 4 4 4 4
9 9 9 9 9 8 8 8 8 8 8 8 8 8 8 8 8 8 8 8 7 7 7 7 7 6 6 6 6 5 5 5 4 4 4 4 4 4 4 4 4 4 4 4
8 8 8 8 8 8 7 7 7 7 7 7 7 7 7 7 7 7 7 7 6 6 6 6 6 6 5 5 5 4 4 4 3 3 3 3 3 3 3 3 3 4 4 4

GEFSNGP_850_meantemp_108.txt.gz
Temperature
27 27 28 27 28 27 27 27 27 28 28 28 27 27 26 25 25 24 24 24 23 22 22 21 20 20 20 19 19 19 19 18 18 18 18 17 17 17 16 16 15 15 15 15
26 26 26 27 27 27 27 27 27 27 27 27 26 25 24 24 24 24 23 23 23 22 22 21 20 20 20 19 19 19 19 19 18 18 18 17 17 17 16 16 16 15 15 15
25 26 25 26 27 27 27 27 27 27 27 26 25 24 23 23 23 23 22 22 22 21 21 20 20 20 20 20 20 20 19 19 18 18 18 17 17 16 16 16 16 16 15 15
25 25 24 26 27 27 27 27 27 26 26 25 24 22 21 21 21 21 21 21 21 21 20 20 20 19 19 19 19 19 19 18 18 18 18 17 17 17 17 16 16 16 15 15
24 24 25 26 26 26 26 25 25 25 25 24 23 23 22 20 19 20 20 20 20 20 20 20 20 19 19 18 18 18 18 18 17 17 17 17 17 16 16 16 16 15 15 15
23 23 24 25 25 24 25 24 24 24 24 23 23 24 22 19 18 18 19 19 19 19 19 19 19 19 18 18 17 18 18 17 17 17 17 16 16 16 16 15 15 15 15 15
23 23 25 24 24 24 24 23 22 22 22 22 21 21 19 18 17 17 17 17 18 18 18 18 18 18 17 17 17 17 17 17 16 17 16 16 16 15 15 15 15 15 14 14
23 23 23 23 24 23 22 21 21 21 20 20 19 18 17 17 16 16 16 16 17 17 17 17 17 17 17 16 16 16 16 16 16 16 15 15 15 15 15 14 14 14 14 14
22 22 21 21 21 20 20 20 20 20 19 18 18 17 17 16 16 16 16 16 16 16 16 16 15 16 16 15 15 15 15 15 15 15 15 14 14 14 14 13 13 13 13 13
22 22 21 20 20 19 19 19 18 18 18 18 17 16 16 15 15 15 15 15 15 15 15 15 15 15 15 15 14 14 14 14 14 14 14 13 13 13 13 13 13 13 13 13
21 21 20 19 19 18 18 18 17 17 17 17 16 16 15 15 14 14 15 15 15 14 14 14 14 14 14 14 14 13 13 13 13 13 13 13 13 12 12 12 12 12 12 12
20 19 19 18 17 17 17 17 16 16 16 16 15 15 14 14 14 14 14 14 14 13 13 13 13 13 13 13 13 13 13 13 13 13 12 12 12 12 12 12 12 11 11 11
17 17 17 16 16 16 16 16 16 15 15 15 15 14 14 14 13 13 13 13 13 13 13 12 12 12 12 12 12 12 12 12 12 12 12 12 12 12 11 11 11 11 11 11
15 15 15 16 16 15 15 15 15 15 14 14 14 14 14 13 13 13 13 12 12 12 12 12 12 12 11 11 11 11 11 11 11 11 11 11 11 11 11 11 11 11 11 10
14 15 15 15 15 15 15 14 14 14 14 14 13 13 13 13 13 12 12 12 12 12 12 12 11 11 11 11 11 10 11 11 11 11 11 11 11 11 11 11 11 11 11 10
14 14 14 14 14 14 14 14 14 13 13 13 13 13 13 12 12 12 12 12 12 12 11 11 11 11 10 10 10 10 10 10 10 10 11 11 11 11 11 10 10 10 10 10
14 14 14 14 14 14 14 13 13 13 13 13 12 12 12 12 12 12 11 11 11 11 11 11 10 10 10 10 10 11 11 11 10 10 10 10 10 10 10 10 10 9 9 9
13 13 13 13 13 13 13 13 13 13 12 12 12 12 12 12 12 11 11 11 11 11 11 10 10 10 10 10 10 10 10 11 10 10 10 10 10 10 10 9 9 9 9 9
13 13 13 12 12 12 12 12 12 12 12 12 12 12 11 11 11 11 11 11 11 11 11 10 10 10 10 10 10 9 10 10 10 10 10 10 9 9 9 9 9 8 8 8
12 12 12 12 12 12 12 12 12 11 11 11 11 11 11 11 11 11 10 11 11 11 10 10 10 10 9 9 9 10 10 10 10 10 9 9 9 9 8 8 8 7 7 7
12 12 12 12 12 11 11 11 11 11 11 11 11 11 10 10 10 10 10 11 10 10 9 9 9 9 9 9 9 9 9 9 9 9 9 9 8 8 7 7 7 6 6 6
11 11 11 11 11 11 11 11 11 10 10 10 10 10 10 10 10 10 10 10 9 9 9 9 9 9 9 8 8 9 9 8 8 8 8 8 7 7 6 6 6 6 5 5
10 10 10 10 10 10 10 10 10 10 10 10 9 9 9 9 9 10 10 9 9 9 8 8 8 8 8 7 8 8 8 7 7 7 7 7 6 6 6 5 5 5 5 5
9 9 9 9 9 10 10 10 9 9 9 9 9 9 9 9 9 9 9 8 8 8 7 7 7 7 7 7 7 7 7 6 6 6 6 6 5 5 5 4 4 4 4 4
8 8 9 9 9 9 9 9 9 9 9 9 9 9 8 8 8 8 7 7 7 7 7 7 6 6 6 6 6 6 6 5 5 5 5 4 4 4 4 4 4 4 4 4
8 8 8 8 8 8 8 8 8 8 8 8 8 8 8 7 7 7 7 6 6 6 6 6 6 5 5 5 5 5 5 4 4 4 4 3 3 3 3 3 3 3 3 3
8 8 8 8 8 8 7 7 7 7 7 7 7 7 7 6 6 6 6 6 5 5 5 5 5 5 4 4 4 4 3 3 3 3 3 3 3 3 3 2 3 3 3 3

GEFSNGP_850_meantemp_114.txt.gz
Temperature
27 27 26 25 25 26 27 28 28 27 27 25 25 26 27 27 27 27 26 26 25 25 24 23 22 22 21 21 20 20 19 18 18 18 18 18 17 17 17 17 17 17 16 16
27 27 26 26 26 26 27 28 28 28 27 26 25 26 26 26 26 26 25 25 24 24 23 23 22 22 21 21 20 20 20 19 18 18 18 18 17 17 17 17 17 16 16 16
25 27 26 26 26 27 27 28 28 27 27 26 25 25 25 25 25 25 25 24 24 23 23 22 22 21 21 21 21 20 20 19 19 18 18 18 17 17 17 17 17 17 16 16
24 24 23 26 28 28 28 28 28 27 26 25 25 24 24 24 24 24 24 23 23 23 23 22 22 21 21 20 20 20 20 19 19 18 18 17 17 17 17 17 17 17 16 16
22 23 23 24 25 25 25 26 26 26 25 25 25 24 23 22 22 22 22 22 22 22 22 21 21 21 20 20 20 19 19 19 18 18 17 17 17 16 16 16 16 16 16 16
22 22 22 23 23 24 25 24 25 25 24 24 24 23 21 21 21 21 20 20 20 21 21 21 20 20 20 19 19 19 18 18 18 18 17 17 17 16 16 16 16 16 15 15
21 22 22 21 22 23 22 22 23 24 23 23 22 22 21 20 20 19 19 19 19 19 19 19 19 19 19 19 18 18 18 17 17 17 17 17 16 16 16 15 15 15 15 15
21 21 20 21 21 20 20 21 22 22 22 21 21 20 19 19 18 18 18 18 18 18 18 18 18 18 18 17 17 17 17 17 17 16 16 16 16 15 15 15 14 14 14 14
19 19 19 19 20 19 20 20 21 21 21 20 20 19 18 18 17 17 17 17 17 17 17 17 17 17 17 16 16 16 16 16 16 15 15 15 15 14 14 14 14 14 14 14
19 19 19 19 20 20 20 20 20 20 20 20 19 18 17 17 17 16 16 16 16 16 16 15 15 15 15 15 15 15 15 15 15 15 15 15 14 14 14 14 13 13 13 13
19 19 20 19 19 19 19 20 20 20 19 19 18 18 17 16 16 16 15 15 15 15 15 14 14 14 14 14 14 14 14 14 14 14 14 14 14 14 13 13 13 13 13 13
18 19 19 18 19 19 19 19 19 19 19 18 18 17 16 16 15 15 15 14 14 14 14 14 14 14 13 13 13 13 13 13 13 13 13 13 13 13 13 13 13 13 13 13
18 18 18 18 19 19 18 18 18 18 17 17 17 16 16 15 15 14 14 14 14 14 13 13 13 13 13 13 13 13 13 13 13 13 13 13 13 13 13 13 13 13 13 13
18 18 18 18 18 18 18 18 17 17 16 16 16 15 15 15 15 14 14 14 13 13 13 13 13 12 12 12 12 12 12 12 12 13 13 13 13 13 13 13 13 13 13 13
17 17 17 17 17 17 17 17 17 16 16 15 15 15 15 14 14 14 13 13 13 13 13 13 12 12 12 12 12 12 12 12 12 12 12 12 13 13 13 13 13 12 12 12
17 17 17 17 17 16 16 16 16 15 15 15 15 14 14 14 14 13 13 13 13 12 12 12 12 12 12 12 11 12 12 12 12 12 12 12 12 13 12 12 12 12 12 12
16 16 16 16 16 15 15 15 15 15 15 14 14 14 14 14 13 13 13 13 12 12 12 12 11 11 11 11 11 11 12 12 12 12 12 12 12 12 12 12 11 11 11 11
16 16 15 15 15 15 14 14 14 14 14 14 14 14 13 13 13 13 12 12 12 12 12 11 11 11 11 11 11 11 11 11 12 12 12 12 11 11 11 11 11 11 10 10
15 15 15 14 14 14 14 14 14 14 14 14 14 13 13 13 12 12 12 12 12 12 11 11 11 11 11 10 11 11 11 11 11 11 11 11 11 11 11 10 10 10 10 9
14 14 14 14 14 14 14 14 14 13 13 13 13 13 12 12 12 12 11 11 11 11 11 11 11 10 10 10 10 10 10 11 11 11 11 10 10 10 10 9 9 9 9 8
13 13 13 13 13 13 13 13 13 13 13 12 12 12 12 11 11 11 11 11 11 11 10 10 10 10 10 10 10 10 10 10 10 10 10 10 9 9 9 8 8 8 7 7
12 12 12 13 13 13 12 12 12 12 12 12 11 11 11 11 11 11 11 10 10 10 10 9 9 9 9 9 9 9 9 9 9 9 9 8 8 8 7 7 7 6 6 6
11 12 12 12 12 12 12 12 12 11 11 11 11 11 11 10 10 10 10 10 9 9 9 9 9 8 8 8 8 8 8 8 8 8 7 7 7 7 6 6 6 5 5 5
11 11 11 11 11 11 11 11 11 11 11 11 11 10 10 10 10 10 9 9 9 8 8 8 8 7 7 7 7 7 7 7 7 7 6 6 6 6 5 5 5 4 4 4
10 10 10 10 10 11 11 11 11 11 11 10 10 10 10 9 9 9 8 8 8 8 8 7 7 7 7 7 6 6 6 6 6 5 5 5 5 5 4 4 4 4 4 4
10 10 10 10 10 10 10 10 10 10 10 10 9 9 9 8 8 8 8 7 7 7 7 7 6 6 6 6 6 5 5 5 5 4 4 4 4 4 3 3 3 3 3 3
10 10 10 10 10 10 9 9 9 9 9 8 8 8 8 8 7 7 7 7 6 6 6 6 5 5 5 5 4 4 4 4 4 4 3 3 3 3 3 3 3 3 3 3

GEFSNGP_850_meantemp_120.txt.gz
Temperature
19 21 21 22 22 22 21 20 19 20 20 20 19 19 20 21 21 21 21 21 20 21 21 20 20 20 20 20 19 19 19 18 18 18 18 18 17 17 17 17 17 17 17 16
19 21 21 21 22 22 22 21 21 20 20 19 19 19 19 20 20 20 20 20 20 20 20 20 20 20 20 20 20 19 19 19 18 18 18 18 17 17 17 17 17 17 17 16
18 19 20 20 20 20 20 20 20 20 19 18 18 18 18 19 19 19 19 20 20 20 20 20 20 20 20 20 20 19 19 19 19 18 18 18 18 17 17 17 17 17 17 17
16 18 19 19 19 20 20 19 19 19 19 18 18 18 18 18 19 19 19 19 19 20 20 20 20 20 20 20 19 19 19 18 18 18 18 18 17 17 17 17 17 17 16 16
15 16 18 19 18 18 18 18 18 18 18 18 18 18 17 17 18 18 18 18 19 19 19 19 19 19 19 19 19 18 18 18 18 18 18 17 17 17 17 16 16 16 16 16
15 17 17 17 18 18 18 17 17 17 17 18 18 16 16 16 17 17 18 18 18 18 19 19 19 19 19 18 18 18 18 18 18 17 17 17 17 16 16 16 16 16 15 15
15 16 16 16 17 18 18 17 16 16 17 17 16 16 16 16 16 17 17 17 17 17 17 17 18 18 18 18 17 17 17 17 17 17 16 16 16 16 15 15 15 15 15 15
15 15 16 16 16 16 16 16 16 16 16 16 15 15 15 16 16 16 16 16 16 16 16 16 17 17 17 16 16 16 16 16 16 16 16 15 15 15 15 15 14 14 14 14
14 15 15 15 15 16 16 16 16 16 16 15 15 15 15 15 15 15 15 15 15 16 16 16 16 16 16 15 15 15 15 15 15 15 15 15 15 14 14 14 14 14 14 13
14 14 14 15 16 16 16 16 16 16 16 15 15 15 15 15 15 15 15 15 15 15 15 15 15 15 15 15 15 15 15 14 14 14 14 14 14 14 14 13 13 13 13 13
14 14 14 15 16 16 16 16 16 16 15 15 15 15 15 14 14 14 14 14 14 14 14 14 14 14 14 14 14 14 14 14 13 13 13 13 13 13 13 13 13 13 13 13
14 14 14 14 16 16 16 16 16 16 15 15 15 15 14 14 14 14 14 14 14 14 13 13 13 13 13 13 13 13 13 13 13 13 13 13 13 13 13 13 13 12 12 12
15 15 15 15 15 16 15 15 15 15 15 15 14 14 14 14 14 14 13 13 13 13 13 13 13 13 12 12 12 12 12 12 12 12 12 12 12 12 12 12 12 12 12 12
15 15 15 15 15 15 15 15 15 15 14 14 14 14 14 14 13 13 13 13 13 13 12 12 12 12 12 12 12 12 12 12 12 12 12 12 12 12 12 12 12 12 12 11
15 15 15 15 15 15 15 15 14 14 14 14 14 14 14 13 13 13 13 13 13 12 12 12 12 12 12 12 11 11 11 11 11 11 11 11 11 11 11 11 11 11 11 11
14 14 14 14 14 14 14 14 14 14 14 14 14 14 13 13 13 13 12 12 12 12 12 12 12 11 11 11 11 11 11 11 11 11 11 11 11 11 11 11 11 10 10 10
14 14 14 13 14 14 14 14 14 14 13 13 13 13 13 13 13 12 12 12 12 12 11 11 11 11 11 11 11 11 11 10 10 10 10 10 10 10 10 10 10 10 10 9
14 14 14 14 14 13 13 13 13 13 13 13 13 13 13 12 12 12 12 11 11 11 11 11 11 11 11 10 10 10 10 10 10 10 10 10 10 10 9 9 9 9 9 9
13 13 13 13 13 13 13 13 13 13 13 13 12 12 12 12 12 11 11 11 11 11 10 10 10 10 10 10 10 10 10 10 9 9 9 9 9 9 9 8 8 8 8 8
13 13 13 13 13 13 13 13 12 12 12 12 12 12 11 11 11 11 11 11 10 10 10 10 10 10 9 9 9 9 9 9 9 8 8 8 8 8 8 7 7 7 7 7
12 12 12 12 12 12 12 12 12 12 11 11 11 11 11 11 11 10 10 10 10 9 9 9 9 9 9 8 8 8 8 8 8 8 7 7 7 7 7 7 6 6 6 6
11 11 12 12 12 11 11 11 11 11 11 11 11 10 10 10 10 10 9 9 9 9 9 8 8 8 8 8 7 7 7 7 7 7 6 6 6 6 6 6 5 5 5 5
11 11 11 11 11 11 11 11 11 11 10 10 10 10 10 9 9 9 9 8 8 8 8 8 7 7 7 7 7 7 6 6 6 6 6 5 5 5 5 5 5 5 5 4
10 10 10 10 10 10 10 10 10 10 10 9 9 9 9 9 8 8 8 8 7 7 7 7 7 6 6 6 6 6 6 5 5 5 5 5 5 4 4 4 4 4 4 4
10 10 10 10 10 9 9 9 9 9 9 9 8 8 8 8 8 7 7 7 7 7 6 6 6 6 5 5 5 5 5 5 4 4 4 4 4 4 4 3 3 3 3 3
10 9 9 9 9 9 9 8 8 8 8 8 7 7 7 7 7 7 6 6 6 6 6 5 5 5 5 5 4 4 4 4 4 4 3 3 3 3 3 3 3 3 3 3
9 9 9 8 8 8 8 8 7 7 7 7 7 6 6 6 6 6 6 5 5 5 5 4 4 4 4 4 4 4 4 3 3 3 3 3 3 3 3 3 3 3 2 2